GEFSMA_con_cape1000_150.txt.gz
Probability
16 16 26 19 16 10 3 6 10 6 10 3 3 3 0 0 3 3 29 77 84 87 81 71 65 71 71 61 61 55 48 45 52 48 35 26 19 16 10 6 6 3 3
13 13 10 13 19 13 6 6 6 0 0 3 3 3 0 0 0 6 16 68 84 87 90 77 68 71 71 71 61 58 55 48 45 48 45 35 32 23 13 10 10 6 6
19 16 10 3 6 6 6 3 3 0 0 0 0 0 0 3 0 3 10 23 55 77 84 87 84 71 61 58 58 65 55 45 45 48 45 42 29 26 23 16 16 13 6
13 3 16 13 10 10 6 3 0 0 0 0 0 0 0 3 3 0 3 3 13 42 68 87 84 77 65 58 61 58 55 52 48 52 52 35 23 10 13 6 10 13 10
35 13 10 13 6 3 3 10 0 0 0 0 0 0 0 0 0 3 3 0 0 0 16 52 84 84 65 65 55 55 48 55 58 48 42 29 26 19 6 6 6 6 10
35 10 10 13 13 6 3 3 0 0 0 0 0 0 0 0 0 0 0 3 3 0 0 10 39 58 74 65 65 58 55 48 55 45 42 35 29 23 6 6 6 6 6
26 10 23 16 10 10 3 3 0 0 0 0 0 0 0 0 0 0 0 0 0 0 0 0 0 6 10 68 68 77 55 48 48 48 45 45 39 35 29 13 3 3 6
23 35 13 13 10 10 6 3 0 0 0 0 0 0 0 0 0 0 0 0 0 0 0 0 0 0 0 0 6 61 61 61 55 52 45 48 45 35 29 26 6 0 0
26 23 13 6 10 10 6 6 3 0 0 0 0 0 0 0 0 0 0 0 0 0 0 0 3 0 0 0 0 3 65 68 68 65 55 48 45 35 29 19 13 3 0
29 16 19 10 13 13 10 10 10 3 3 0 0 0 0 0 0 0 0 0 0 0 0 0 3 0 0 0 0 0 13 39 52 55 52 48 48 32 19 13 13 10 3
16 29 23 19 13 6 6 10 10 6 3 0 0 0 0 0 0 0 0 0 0 0 0 0 0 3 3 0 0 0 3 3 10 23 39 39 35 35 29 16 3 6 3
13 23 32 10 10 10 10 10 10 10 6 6 0 0 0 0 0 0 0 0 0 0 0 0 0 0 3 3 3 3 3 0 0 0 6 23 23 29 29 19 13 6 10
16 19 19 10 10 10 10 13 10 13 10 10 3 3 3 0 0 0 0 0 0 0 0 0 0 0 0 0 0 3 6 0 0 0 0 0 6 13 16 19 19 13 10
13 13 16 10 6 13 16 10 13 13 13 6 6 3 3 0 0 0 0 0 0 0 0 0 0 0 0 0 0 0 3 0 0 0 0 0 0 0 0 0 3 3 3
13 13 13 13 10 10 6 6 6 6 3 3 3 3 3 3 3 0 0 0 0 0 0 0 0 0 0 0 0 0 0 0 0 0 0 0 0 0 0 0 0 0 0
13 13 13 13 13 10 6 3 3 3 3 3 3 3 3 3 3 3 3 3 0 0 0 0 0 0 0 0 0 0 0 0 0 0 0 0 0 0 0 0 0 0 0
19 16 16 16 10 10 6 3 3 3 3 3 3 3 3 3 3 3 3 3 3 0 0 0 0 0 0 0 0 0 0 0 0 0 0 0 0 0 0 0 0 0 0
19 16 16 10 6 6 6 3 3 6 6 6 3 3 3 3 3 3 3 3 3 0 0 0 0 0 0 0 0 0 0 0 0 0 0 0 0 0 0 0 0 0 0
23 23 10 10 10 10 10 10 10 13 10 10 10 10 10 6 6 3 3 0 0 0 0 0 0 0 0 0 0 0 0 0 0 0 0 0 0 0 0 0 0 0 0
23 19 16 10 10 10 6 6 10 10 10 10 10 10 6 6 6 3 3 0 0 0 0 0 0 0 0 0 0 0 0 0 0 0 0 0 0 0 0 0 0 0 0
26 23 19 19 13 13 16 16 19 19 19 13 13 13 13 6 10 3 6 3 0 0 0 0 0 0 0 0 0 0 0 0 0 0 0 0 0 0 0 0 0 0 0
19 16 19 16 19 16 13 13 10 10 10 6 6 6 6 3 6 3 0 0 0 0 3 0 0 0 0 0 0 0 0 0 0 0 0 0 0 0 0 0 0 0 0
16 13 16 16 13 13 10 3 0 0 3 3 3 3 6 6 3 0 0 0 0 0 0 0 0 0 0 0 0 0 0 0 0 0 0 0 0 0 0 0 0 0 0
13 13 13 13 13 13 6 3 0 0 0 0 3 3 0 0 0 0 0 0 0 0 0 0 0 0 0 0 0 0 0 0 0 0 0 0 0 0 0 0 0 0 0
16 10 13 13 13 3 3 3 0 0 0 0 0 0 0 0 0 0 0 0 0 0 0 0 0 0 0 0 0 0 0 0 0 0 0 0 0 0 0 0 0 0 0
16 13 10 10 10 3 3 3 0 0 0 0 0 0 0 0 0 0 0 0 0 0 0 0 0 0 0 0 0 0 0 0 0 0 0 0 0 0 0 0 0 0 0

GEFSMA_con_cape1000_156.txt.gz
Probability
10 10 10 10 6 6 3 3 6 10 6 3 3 6 0 0 0 6 32 68 81 84 68 68 65 58 61 58 52 45 32 39 32 26 23 13 19 19 13 3 0 0 0
6 3 6 6 6 6 3 3 3 6 0 3 3 3 0 0 3 13 19 45 71 87 87 74 71 58 58 55 58 52 52 45 39 35 29 32 32 10 6 6 3 3 3
3 3 3 3 3 3 3 6 3 0 0 0 3 0 0 0 3 13 16 32 52 71 71 84 74 61 55 58 61 52 45 45 39 35 35 32 26 16 16 10 6 6 3
3 3 3 3 3 3 3 6 0 0 0 0 0 0 0 0 0 0 13 19 32 42 52 68 68 71 58 55 55 55 48 45 45 35 35 29 26 26 19 6 3 6 6
13 3 3 3 3 3 3 6 0 0 0 0 0 0 0 0 0 0 6 13 16 26 32 52 65 68 55 55 52 48 55 52 45 42 39 29 26 23 10 6 3 6 6
6 3 0 3 3 3 3 3 0 0 0 0 0 0 0 0 0 0 0 3 3 3 3 13 29 52 55 61 65 55 52 58 52 45 39 39 26 26 6 3 3 3 3
0 3 3 0 3 3 0 0 0 0 0 0 0 0 0 0 0 0 0 0 0 0 0 3 6 10 19 48 52 61 48 48 52 48 45 42 26 26 19 10 3 3 3
3 3 0 0 3 3 0 0 0 0 0 0 0 0 0 0 0 0 0 0 0 0 0 0 0 3 0 10 6 29 52 48 42 45 45 45 39 29 16 13 3 3 3
6 3 0 0 0 3 6 3 3 0 0 0 0 0 0 0 0 0 0 0 0 0 0 3 3 3 0 0 0 0 35 48 42 42 39 35 35 26 10 10 10 3 3
3 6 0 0 0 0 0 0 0 0 0 3 0 0 0 0 0 0 0 0 0 0 0 0 0 3 3 3 0 0 3 16 29 48 35 29 26 29 10 10 6 3 3
3 6 3 3 3 3 0 0 0 0 0 0 0 0 0 0 0 0 0 0 0 0 0 0 0 0 0 0 3 0 0 0 6 19 16 26 32 19 16 16 10 10 6
3 3 6 3 3 3 0 0 0 0 0 0 0 0 0 0 0 0 0 0 0 0 0 0 0 0 0 0 0 0 0 0 0 0 0 13 13 16 16 23 16 13 10
10 6 10 6 6 6 6 6 3 3 3 3 3 3 3 3 0 0 0 0 0 0 0 0 0 0 0 0 0 0 0 0 0 0 0 0 0 6 10 19 16 16 16
6 6 10 10 10 10 10 6 6 3 3 3 0 0 0 0 0 0 0 0 0 0 0 0 0 0 0 0 0 0 0 0 0 0 0 0 0 0 0 0 0 0 0
6 6 10 10 13 10 6 6 6 6 6 0 3 3 3 3 0 0 0 0 3 6 3 0 0 0 0 0 0 0 0 0 0 0 0 0 0 0 0 0 0 0 0
13 13 13 13 13 10 6 3 3 3 6 6 6 3 3 3 3 3 3 3 0 3 3 0 0 0 0 0 0 0 0 0 0 0 0 0 0 0 0 0 0 0 0
13 13 13 13 10 6 6 3 3 3 3 3 6 6 3 3 3 3 3 3 3 0 0 0 3 3 0 0 0 0 0 0 0 0 0 0 0 0 0 0 0 0 0
19 13 13 13 6 6 6 6 6 6 3 3 3 3 3 3 3 3 3 3 3 3 3 3 3 3 0 0 0 0 0 0 0 0 0 0 0 0 0 0 0 0 0
19 16 16 13 10 6 6 6 6 6 6 6 6 6 3 3 3 3 3 3 0 0 0 0 0 0 0 0 0 0 0 0 0 0 0 0 0 0 0 0 0 0 0
23 19 13 10 10 10 3 3 3 3 3 0 0 0 0 0 0 0 0 0 0 0 0 0 0 0 0 0 0 0 0 0 0 0 0 0 0 0 0 0 0 0 0
19 16 10 3 3 3 3 3 3 3 3 3 0 3 3 0 0 0 0 6 6 0 0 0 0 0 0 0 0 0 0 0 0 0 0 0 0 0 0 0 0 0 0
13 13 3 3 3 3 3 0 3 6 6 10 13 13 3 0 0 0 0 0 0 3 3 3 3 0 3 0 0 0 0 0 0 0 0 0 0 0 0 0 0 0 0
10 6 6 6 6 3 0 0 0 0 3 6 6 6 3 3 0 3 3 0 0 0 0 0 3 3 0 0 0 0 0 0 0 0 0 0 0 0 0 0 0 0 0
13 10 6 6 6 6 0 0 0 0 3 3 6 0 0 3 0 3 3 0 0 0 0 0 0 0 0 0 0 0 0 0 0 0 0 0 0 0 0 0 0 0 0
19 13 6 6 3 6 0 0 0 0 0 0 0 0 0 0 0 0 0 0 0 0 0 0 0 0 0 0 0 0 0 0 0 0 0 0 0 0 0 0 0 0 0
6 6 6 3 3 3 0 0 0 0 0 0 0 0 0 0 0 0 0 0 0 0 0 0 0 0 0 0 0 0 0 0 0 0 0 0 0 0 0 0 0 0 0

GEFSMA_con_cape1000_162.txt.gz
Probability
65 58 61 77 55 58 61 77 68 65 42 32 23 29 35 23 29 26 52 71 68 71 68 61 52 52 42 39 45 32 29 23 26 35 26 19 10 3 10 3 0 0 0
71 68 84 81 55 58 58 68 55 58 48 45 35 26 32 26 32 39 29 61 71 71 71 68 61 58 39 39 39 39 35 29 29 29 23 16 19 13 10 6 6 0 0
94 84 68 81 65 65 77 77 71 58 52 48 45 42 48 45 32 52 35 42 61 68 74 71 65 58 61 42 48 52 42 45 42 45 35 29 26 23 16 13 6 3 6
97 100 77 65 77 61 58 71 65 58 39 42 45 45 48 61 48 61 35 35 48 29 58 71 68 68 55 52 45 55 61 52 48 42 39 35 29 29 26 19 13 13 6
90 87 90 90 81 74 74 55 55 61 45 52 42 65 45 35 58 39 45 39 45 52 48 68 68 61 55 48 52 58 65 61 52 39 35 29 29 29 16 6 13 10 6
84 77 77 81 77 81 84 74 71 84 68 65 26 19 48 35 39 42 52 45 52 42 39 42 68 55 55 55 61 58 52 55 55 42 39 32 26 29 26 10 10 6 6
77 90 68 81 87 81 81 55 74 71 61 71 58 52 45 32 32 55 45 42 45 55 45 45 58 65 61 48 52 61 58 58 52 52 48 39 32 39 19 3 6 6 6
77 61 90 90 90 94 94 87 87 71 71 68 71 58 42 45 68 13 48 45 35 48 39 39 52 68 61 55 26 42 48 48 52 52 52 48 45 39 19 10 3 3 3
74 74 77 81 90 81 81 90 87 77 71 74 65 58 35 39 26 39 35 39 48 48 48 45 45 61 71 61 61 16 45 52 52 52 52 52 45 29 13 10 6 3 0
68 61 68 74 87 87 90 87 68 81 77 55 65 68 48 55 39 35 45 16 26 45 35 29 23 42 61 71 68 26 29 35 45 48 58 55 35 23 13 10 16 13 3
68 65 61 71 94 87 90 81 84 87 77 65 65 71 65 71 45 55 35 26 26 26 26 26 39 32 45 48 68 39 26 6 16 19 23 42 39 35 16 16 13 13 13
77 61 65 74 81 87 84 84 81 74 87 87 81 61 61 45 52 58 45 58 52 32 32 39 29 32 39 42 39 23 16 0 0 0 3 10 23 26 29 16 13 19 13
61 71 71 81 74 77 77 74 71 71 74 84 94 74 61 52 48 52 48 48 48 35 42 35 35 35 23 35 48 10 13 0 0 0 0 0 0 6 10 6 6 16 19
48 65 58 68 71 74 58 71 65 68 68 71 61 77 71 39 39 52 48 48 29 29 19 13 23 32 35 26 19 0 23 0 0 0 0 0 0 0 0 0 0 3 3
52 55 61 65 68 68 71 71 61 61 65 71 58 58 58 48 45 45 45 45 42 29 29 35 23 19 42 42 16 35 45 13 0 0 0 0 0 0 0 0 0 0 0
65 52 58 58 61 68 65 68 71 68 71 65 71 68 65 48 52 55 52 48 42 39 35 16 42 19 42 16 13 35 42 10 0 0 0 0 0 0 0 0 0 0 0
65 61 61 61 55 58 65 61 55 55 61 52 48 42 45 55 48 42 52 52 48 52 32 19 23 42 52 45 26 32 39 32 23 0 0 0 0 0 0 0 0 0 0
65 65 52 48 52 52 39 39 45 42 42 45 45 45 45 42 52 55 52 45 52 55 42 32 26 29 42 45 48 32 26 13 23 3 0 0 0 0 0 0 0 0 0
65 61 65 52 52 52 48 45 39 35 45 39 35 39 39 39 42 45 48 45 39 19 35 32 26 32 29 23 23 23 19 26 10 3 0 0 0 0 0 0 0 0 0
68 68 65 52 48 42 35 39 35 35 35 39 39 39 35 42 45 39 42 48 35 26 29 23 26 26 23 26 26 26 23 23 16 3 0 0 0 0 0 0 0 0 0
61 65 65 52 48 39 32 35 39 29 35 35 35 29 19 16 13 19 16 29 35 26 26 32 29 29 26 26 19 19 13 13 10 10 6 0 0 0 0 0 0 0 0
61 58 55 45 45 26 13 6 16 26 32 32 32 26 19 16 10 3 0 0 3 13 19 29 26 26 29 19 19 13 10 10 6 6 6 6 3 3 0 0 0 0 0
61 61 55 52 35 26 10 0 0 23 26 29 29 26 16 10 10 19 6 0 0 0 0 6 10 19 16 19 16 13 19 13 13 6 6 6 0 0 0 0 0 0 0
55 55 45 35 35 26 6 0 0 3 16 19 23 19 16 16 16 16 16 10 13 10 3 3 10 10 13 16 16 16 16 13 10 3 6 3 3 0 0 0 0 0 0
48 35 35 35 32 26 10 0 0 10 23 19 16 16 16 16 10 3 10 10 10 10 0 0 0 0 0 0 0 10 10 6 6 6 10 3 0 0 0 0 0 0 0
39 35 32 32 29 23 13 0 0 13 16 19 13 13 6 6 6 0 6 6 10 10 10 0 0 0 0 0 0 0 10 10 10 6 3 3 0 0 0 0 0 0 0

GEFSMA_con_cape1000_168.txt.gz
Probability
97 87 90 90 77 87 90 87 84 87 74 71 61 48 61 52 42 35 42 81 84 81 71 68 65 58 52 45 48 42 29 29 29 29 23 23 13 16 6 0 0 3 3
94 94 90 94 87 87 87 90 87 84 90 87 71 65 71 58 61 65 45 71 81 84 84 74 65 58 55 55 42 48 52 42 29 35 35 35 26 13 6 6 6 6 6
94 94 97 94 84 84 90 90 90 90 84 77 81 77 71 71 65 68 55 39 35 81 84 81 71 58 58 55 55 48 55 48 52 58 42 35 29 26 29 16 10 10 13
94 94 97 94 94 90 90 90 90 87 84 87 81 71 77 74 71 65 52 48 39 29 58 81 77 71 61 55 58 55 58 55 55 52 39 42 32 29 29 26 26 13 10
100 97 100 100 94 94 94 84 87 87 77 81 74 81 74 84 77 65 58 58 55 52 35 48 81 74 71 58 55 55 68 65 61 52 48 35 35 35 19 19 19 10 3
97 94 100 100 97 97 94 90 87 90 90 87 35 55 65 68 71 68 65 58 55 58 42 42 42 58 77 84 77 71 61 68 58 58 52 42 42 35 26 16 19 13 10
97 94 90 100 97 90 90 84 84 81 74 77 74 68 61 65 68 81 68 52 48 55 52 61 45 45 32 61 68 71 65 65 65 61 61 48 52 39 26 16 10 3 3
87 84 97 90 90 87 81 81 81 77 68 71 77 74 61 61 65 35 65 71 58 55 45 42 58 71 55 39 10 39 68 74 65 61 61 58 55 45 29 19 3 0 0
90 90 94 77 84 87 81 77 77 77 71 77 77 77 58 39 58 65 68 61 65 71 65 61 68 58 58 61 35 10 58 65 68 65 58 55 48 45 32 29 13 3 0
87 90 87 84 87 84 81 74 74 84 84 74 81 71 68 74 48 55 61 48 58 55 52 32 29 52 65 65 58 32 29 39 65 65 65 55 55 48 32 29 26 10 3
84 77 74 77 77 81 77 77 77 84 81 71 71 68 61 74 65 65 29 42 45 48 52 68 58 61 58 48 52 42 23 19 23 48 58 55 55 48 42 39 26 23 19
77 74 74 77 84 81 77 84 74 74 87 77 74 65 61 55 58 45 42 39 42 48 58 58 61 61 58 55 45 29 19 10 0 0 6 32 45 45 42 42 32 26 19
74 74 74 77 81 77 81 87 77 77 81 77 77 68 65 61 65 58 45 39 42 48 52 55 58 65 42 45 39 26 23 6 0 0 0 0 3 16 19 26 32 29 23
77 81 74 84 81 77 77 81 84 77 77 74 71 81 77 68 65 52 48 39 32 19 39 42 52 48 39 45 29 10 13 0 0 0 0 0 0 0 0 0 0 3 3
74 74 81 77 74 74 74 77 84 84 77 74 71 71 61 58 61 68 61 45 19 6 13 35 48 48 52 45 32 16 32 10 3 0 0 0 0 0 0 0 0 0 0
81 74 77 81 77 77 77 77 77 84 84 74 71 68 61 58 65 58 58 48 52 29 16 32 32 29 35 10 19 35 39 19 0 0 0 0 0 0 0 0 0 0 0
84 74 77 77 77 74 77 74 77 74 65 68 58 52 48 58 48 42 45 45 45 35 23 26 26 32 35 39 26 35 32 29 13 3 0 0 0 0 0 0 0 0 0
77 77 71 77 74 77 74 74 58 55 52 48 55 55 45 32 39 32 42 39 32 29 19 16 16 13 19 32 29 35 19 10 16 3 3 0 0 0 0 0 0 0 0
90 77 84 77 68 68 58 58 52 52 42 35 48 48 48 35 32 29 35 35 35 19 29 19 16 16 16 13 16 19 16 13 3 3 3 0 0 0 0 0 0 0 0
87 84 77 68 61 55 52 48 48 45 39 39 42 39 39 39 39 42 26 26 26 29 23 13 13 13 16 19 19 13 10 10 10 6 3 0 0 0 0 0 0 0 0
81 81 71 58 52 42 35 35 39 39 35 29 29 32 29 16 10 19 13 19 19 23 16 19 23 16 16 16 10 10 6 6 6 10 10 6 0 0 0 0 0 0 0
84 74 61 48 42 29 19 13 19 32 39 32 29 26 23 16 10 3 3 0 6 13 10 13 16 13 13 13 13 6 6 3 0 10 3 0 0 0 0 0 0 0 0
77 68 71 52 35 26 10 6 3 10 26 35 29 29 19 16 10 10 6 0 0 0 0 10 6 10 10 13 10 10 3 3 0 0 0 0 0 3 3 0 0 0 0
68 68 65 61 35 26 10 6 3 3 16 29 26 26 26 16 10 10 13 13 13 6 3 0 0 3 6 6 6 6 6 3 0 0 0 0 0 0 0 0 0 0 0
74 68 55 48 35 29 6 3 0 10 19 19 19 16 19 19 6 3 6 13 13 6 6 0 0 3 3 0 0 0 6 3 3 0 0 0 0 0 0 0 0 0 0
65 58 52 48 39 32 6 3 0 6 19 23 23 16 10 6 3 0 6 10 10 6 6 3 0 0 0 0 0 0 3 3 3 3 0 0 0 0 0 0 0 0 0

GEFSMA_con_cape1000_174.txt.gz
Probability
10 13 10 10 13 10 6 3 6 10 13 13 13 10 3 3 3 0 6 84 94 90 77 84 74 65 55 61 55 48 42 35 32 32 32 23 16 10 19 16 16 3 0
13 10 10 13 13 10 10 6 6 10 6 13 6 10 0 0 3 0 0 42 81 81 77 77 71 68 61 58 52 52 48 42 42 32 29 29 32 26 16 19 16 10 10
13 6 10 10 3 10 10 6 13 10 6 6 6 10 0 3 3 3 0 13 35 81 77 77 77 74 74 58 52 52 55 45 45 39 29 32 29 32 32 16 10 13 13
13 13 6 6 10 13 10 10 6 10 6 3 3 6 3 3 3 0 0 0 3 16 71 77 77 84 71 61 55 58 58 55 52 52 42 26 29 32 26 23 10 10 10
19 13 10 10 19 19 13 13 10 6 3 3 6 3 0 0 6 6 0 3 0 3 3 32 77 77 71 65 58 58 58 58 58 48 42 19 26 32 29 19 13 10 10
32 16 13 19 23 13 6 6 6 10 6 6 10 10 0 0 0 0 0 0 3 3 0 0 10 48 71 74 65 61 68 61 58 58 48 35 23 29 29 23 13 13 10
35 26 23 19 16 13 6 3 10 16 13 10 6 3 0 0 0 0 0 0 3 6 0 0 0 0 3 58 71 74 71 68 71 65 65 55 48 32 23 16 10 3 0
26 39 32 26 13 16 10 6 6 10 10 10 3 0 0 0 0 0 0 0 0 3 3 0 0 0 0 0 10 52 61 61 71 68 65 61 61 48 23 16 10 6 3
29 29 29 23 23 13 13 10 10 10 10 10 6 0 0 0 0 0 0 0 0 0 0 0 0 0 0 0 3 6 52 65 74 68 65 61 55 42 26 23 16 10 6
35 29 23 29 19 19 19 13 10 10 10 10 6 3 3 0 3 0 0 0 0 0 0 3 0 0 3 0 0 3 3 32 58 68 65 61 55 45 32 26 29 19 16
39 45 39 32 26 26 19 19 13 13 10 13 10 6 6 3 3 3 0 0 0 0 0 0 0 0 0 3 0 0 0 0 10 52 58 55 61 52 35 39 32 26 26
35 39 42 35 23 26 29 19 16 16 13 13 13 6 6 3 3 0 0 0 0 0 0 0 0 0 0 0 3 6 3 0 0 0 10 32 48 48 42 42 39 29 26
39 39 39 32 32 29 23 13 19 16 13 13 13 6 6 3 3 0 0 0 0 0 0 0 0 0 0 0 3 0 10 3 3 0 0 0 0 13 23 26 29 32 32
39 35 35 32 32 26 29 19 23 19 19 10 10 6 10 3 0 0 0 0 0 0 0 0 0 0 0 0 0 0 3 3 3 0 0 0 0 0 0 3 10 13 6
35 35 32 29 29 29 19 16 13 19 16 10 10 10 10 3 0 0 0 0 0 0 0 0 0 0 0 0 0 0 0 3 3 0 0 0 0 0 0 0 0 0 0
42 35 35 35 35 35 26 19 23 23 13 10 3 3 0 0 0 0 0 0 0 0 0 0 0 0 0 0 0 0 0 0 0 0 0 0 0 0 0 0 0 0 0
42 42 39 39 39 32 26 26 26 29 16 16 13 10 3 0 0 0 0 0 0 0 0 0 0 0 0 0 0 0 0 0 3 0 0 0 0 0 0 0 0 0 0
39 39 39 39 32 19 19 23 23 23 16 13 16 10 6 3 0 0 0 0 0 0 0 0 0 0 0 0 0 3 3 0 0 0 0 0 0 0 0 0 0 0 0
35 39 35 23 19 19 19 19 19 16 13 13 10 10 6 3 3 3 0 0 0 0 0 0 0 0 0 0 0 0 0 0 0 3 3 0 0 0 0 0 0 0 0
45 42 26 23 19 19 19 19 23 16 10 6 6 6 6 0 0 0 0 3 3 0 0 0 0 0 0 0 0 0 0 0 0 0 0 0 0 0 0 0 0 0 0
48 29 26 26 19 19 19 19 19 16 13 13 10 6 6 3 3 0 3 0 0 0 0 0 0 0 0 0 0 0 0 0 0 0 0 0 0 0 0 0 0 0 0
32 23 23 23 23 23 13 10 10 10 6 6 6 6 3 0 3 0 0 0 0 0 0 0 0 0 0 0 0 0 0 0 0 0 0 0 0 0 0 0 0 0 0
35 29 26 26 26 16 13 10 0 6 6 6 6 6 3 3 3 3 0 0 0 0 0 0 0 0 0 0 0 0 0 0 0 0 0 0 0 0 0 0 0 0 0
29 29 29 23 23 13 10 3 0 0 0 6 6 3 3 3 3 3 3 0 0 0 0 0 0 0 0 0 0 0 0 0 0 0 0 0 0 0 0 0 0 0 0
23 23 23 23 13 13 13 6 0 0 3 3 3 3 3 3 3 0 0 0 0 0 0 0 0 0 0 0 0 0 0 0 0 0 0 0 0 0 0 0 0 0 0
39 29 26 13 13 13 6 3 0 0 3 3 3 3 0 0 0 0 0 0 0 0 0 0 0 0 0 0 0 0 0 0 0 0 0 0 0 0 0 0 0 0 0

GEFSMA_con_cape1000_180.txt.gz
Probability
3 3 6 3 6 10 10 6 3 10 10 13 13 13 10 13 13 10 13 35 77 84 81 81 71 71 65 55 55 42 42 26 35 32 29 19 16 16 13 19 13 13 10
6 0 0 0 3 3 3 3 3 3 10 13 13 13 10 10 10 10 6 16 65 84 74 74 71 74 68 61 45 52 45 45 39 35 32 35 29 16 16 16 16 13 16
0 3 0 0 3 3 3 6 6 6 10 10 10 10 10 6 10 10 10 0 19 58 84 77 71 71 65 61 52 52 48 52 48 45 35 35 32 35 29 29 23 16 13
3 0 3 3 0 3 10 10 6 6 6 6 6 6 6 6 6 3 3 0 13 23 52 77 74 74 71 68 55 58 52 58 48 45 42 26 29 29 29 26 19 23 19
6 3 3 3 3 6 6 6 10 6 6 3 6 6 6 6 6 6 3 0 3 3 16 32 74 77 71 65 55 55 55 58 55 48 35 26 26 29 23 16 16 19 10
13 6 6 3 6 6 10 6 3 3 3 3 6 13 3 3 3 3 0 0 3 3 3 3 13 39 61 68 74 68 58 55 65 52 45 39 23 23 19 13 10 6 6
10 6 6 10 10 10 10 3 3 6 10 10 6 3 0 0 0 0 0 3 3 0 3 0 0 0 3 39 48 65 71 61 65 58 55 42 35 29 16 10 6 6 6
10 10 6 6 6 13 10 6 3 6 10 10 10 3 0 0 0 0 0 0 0 0 6 3 0 0 0 3 0 23 52 58 61 68 61 52 42 42 19 13 10 6 6
16 16 13 10 6 10 10 10 6 10 10 10 10 10 3 0 0 0 0 0 0 0 0 0 3 3 3 3 3 0 23 42 52 65 65 71 42 29 19 19 16 13 10
19 19 16 13 13 10 6 6 6 6 10 10 10 3 0 0 0 0 0 0 0 0 3 0 3 10 3 0 0 0 0 6 29 52 71 71 58 29 23 23 19 19 16
19 23 23 13 10 10 10 6 6 6 10 10 10 6 3 0 0 0 0 0 0 0 0 3 3 0 3 3 6 0 0 0 0 6 39 61 61 45 32 29 29 29 16
16 29 26 13 6 6 6 6 6 10 6 3 6 6 6 6 6 3 3 3 0 0 0 0 0 0 0 3 3 3 3 3 0 0 0 16 29 39 48 42 32 29 29
23 19 23 19 10 10 10 6 6 6 6 6 10 10 6 6 6 0 3 0 0 0 0 0 0 0 0 3 3 0 3 3 0 0 0 0 0 10 13 19 29 23 26
29 23 23 23 23 13 13 10 6 10 10 10 10 13 10 6 0 0 0 0 0 0 0 0 3 0 0 3 3 0 0 0 0 0 0 0 0 0 0 3 3 3 3
29 26 23 23 26 23 19 19 13 16 10 6 6 10 10 10 10 0 0 0 0 0 3 3 3 0 3 3 0 0 6 0 0 0 0 0 0 0 0 0 0 0 0
32 26 23 26 26 19 16 16 16 13 10 10 6 6 6 3 0 3 3 0 0 0 3 3 0 0 0 0 0 0 0 0 0 0 0 0 0 0 0 0 0 0 0
32 29 29 29 23 13 16 16 13 13 10 6 3 6 6 6 3 3 3 3 0 0 0 3 0 0 0 0 0 0 3 3 3 0 0 0 0 0 0 0 0 0 0
29 29 26 23 19 19 13 13 13 13 16 16 13 13 13 6 3 6 0 0 0 0 0 0 0 0 0 0 0 3 0 0 0 0 0 0 0 0 0 0 0 0 0
29 26 26 23 19 16 16 13 13 16 19 19 16 10 10 10 6 3 3 3 0 0 0 0 0 0 0 0 0 0 0 0 0 0 0 0 0 0 0 0 0 0 0
29 26 23 19 19 19 19 23 23 19 19 16 10 10 10 10 10 10 3 6 3 0 0 0 0 0 0 0 0 3 0 0 0 0 0 0 0 0 0 0 0 0 0
32 23 19 19 19 19 19 23 23 16 19 13 6 6 6 6 3 3 0 0 3 0 3 0 0 0 0 0 0 0 0 0 0 0 0 0 0 0 0 0 0 0 0
19 16 19 19 19 19 13 10 13 13 10 10 10 6 6 3 3 0 0 0 0 0 0 0 0 0 0 0 0 0 0 0 3 0 0 0 0 0 0 0 0 0 0
19 16 16 16 16 16 10 0 0 0 6 6 6 3 3 3 3 3 3 0 0 0 0 0 0 0 0 0 0 0 0 0 0 0 0 0 0 0 0 0 0 0 0
19 19 16 13 13 10 3 0 0 0 0 3 6 6 6 6 3 3 3 3 3 0 0 0 0 0 0 0 0 0 0 0 0 0 0 0 0 0 0 0 0 0 0
16 16 16 13 13 6 3 0 0 0 3 3 3 3 3 3 0 0 0 3 3 3 0 0 0 0 0 0 0 0 0 0 0 0 0 0 0 0 0 0 0 0 0
19 19 10 10 6 6 0 0 0 0 0 0 0 0 0 0 0 0 0 0 0 3 0 0 0 0 0 0 0 0 0 0 0 0 0 0 0 0 0 0 0 0 0

GEFSMA_con_cape1000_186.txt.gz
Probability
74 68 77 77 42 42 39 68 58 58 48 35 23 19 19 19 13 19 52 61 71 77 77 77 74 74 68 61 55 52 45 39 42 29 32 29 19 19 16 13 13 13 16
74 74 68 84 61 61 48 55 61 71 55 52 32 26 26 26 35 42 39 55 65 74 81 81 77 68 61 61 58 58 45 42 42 42 35 29 29 23 23 19 16 10 13
90 90 68 81 71 68 77 71 61 61 61 55 48 39 35 52 39 42 45 52 65 68 77 77 77 68 65 58 58 52 55 52 45 48 45 39 39 35 29 23 16 19 16
87 90 81 65 81 71 71 68 65 58 68 48 61 55 52 58 58 61 52 58 65 65 74 77 81 77 74 71 68 55 55 61 61 48 45 39 42 35 32 23 19 26 19
81 81 84 81 74 65 68 58 52 65 61 68 52 65 52 58 68 52 58 52 61 61 61 74 81 68 74 74 68 68 52 58 58 55 48 42 42 39 32 29 29 23 19
84 84 84 84 68 68 71 65 68 61 65 74 35 35 48 52 65 61 55 45 58 58 52 68 74 77 71 68 65 77 77 65 58 65 61 42 39 35 39 26 19 16 13
94 97 71 81 77 61 71 68 65 52 52 61 68 48 39 26 39 65 61 52 48 55 52 68 71 74 74 52 58 65 71 71 71 74 61 52 45 39 35 29 16 10 6
90 77 94 81 87 94 84 74 71 55 52 58 58 48 42 42 65 16 39 55 52 52 52 52 58 71 68 71 48 42 58 65 71 68 68 61 55 52 42 29 16 10 6
77 77 90 87 81 84 84 77 74 71 68 65 55 65 55 35 35 29 42 32 42 55 52 35 52 58 68 74 74 39 52 52 58 65 68 65 48 48 39 26 23 19 10
81 81 87 84 87 84 87 61 58 74 74 71 65 77 65 61 42 45 32 26 35 48 45 29 16 42 65 68 65 42 39 35 39 55 65 68 55 48 35 29 29 23 19
87 74 81 81 81 74 74 74 74 74 74 68 61 58 48 61 48 61 45 52 42 35 39 48 42 45 52 55 65 42 26 13 6 19 26 48 58 42 39 42 39 35 35
87 81 74 71 74 74 77 81 84 74 74 74 71 55 58 55 58 52 39 68 58 35 29 42 35 39 42 42 32 13 16 6 0 0 3 16 19 26 35 42 42 45 35
81 87 74 84 81 81 74 77 77 71 68 71 74 77 61 52 55 48 61 45 55 48 45 39 35 35 29 35 48 6 13 0 0 0 0 0 0 6 13 16 32 32 29
77 87 81 81 77 84 68 74 65 61 68 68 55 68 71 68 65 55 55 61 39 32 32 39 39 32 32 39 16 0 23 0 0 0 0 0 0 0 0 0 3 6 6
81 81 77 74 71 77 77 68 65 61 68 58 52 61 71 55 58 48 55 48 45 23 19 32 29 35 39 42 16 26 29 16 0 0 0 0 0 0 0 0 0 0 0
87 81 71 68 68 68 71 71 65 61 55 61 61 55 61 45 42 42 45 45 45 39 26 29 39 29 35 10 6 19 26 6 0 0 0 0 0 0 0 0 0 0 0
87 84 84 71 68 68 65 68 58 58 58 55 52 48 52 48 45 39 42 29 35 39 29 29 29 35 39 42 32 29 26 29 16 0 0 0 0 0 0 0 0 0 0
87 84 81 77 71 68 68 68 58 55 55 52 45 45 35 39 42 39 32 32 26 32 32 35 29 26 29 35 35 35 16 3 10 0 0 0 0 0 0 0 0 0 0
87 81 77 74 71 68 65 52 55 48 48 45 42 39 39 32 39 35 35 32 29 29 35 35 26 29 26 23 19 19 13 19 6 0 0 0 0 0 0 0 0 0 0
81 81 77 74 71 65 55 48 52 48 45 39 32 35 32 35 35 32 29 29 29 26 32 39 32 29 29 26 23 19 19 19 16 0 0 0 0 0 0 0 0 0 0
77 84 77 71 68 61 52 52 52 45 42 35 32 35 29 19 16 16 13 23 23 26 29 26 26 23 23 19 16 19 13 19 16 10 10 10 3 6 3 0 0 0 0
81 81 77 61 52 32 13 16 26 39 35 35 42 35 23 16 13 3 0 0 6 10 19 23 16 16 19 19 16 16 13 13 10 13 13 6 10 6 6 3 0 0 0
77 74 71 65 58 29 13 6 3 35 32 39 35 39 19 13 10 13 10 3 3 0 0 10 10 13 10 16 13 10 16 10 13 6 10 10 3 6 6 3 0 0 0
71 68 65 61 58 32 6 3 3 16 26 32 29 29 26 26 16 13 16 13 13 10 6 6 10 10 6 3 10 6 10 6 10 10 6 10 10 3 3 3 0 0 0
71 52 55 55 52 32 3 3 0 16 26 26 23 19 16 19 6 0 6 16 16 6 3 0 0 0 0 0 0 0 3 3 0 6 3 6 6 6 6 3 0 0 0
61 55 48 52 48 39 10 0 0 13 23 23 23 13 0 0 3 0 3 10 13 6 3 3 0 0 0 0 0 0 3 3 0 3 3 0 0 0 6 6 6 3 0

GEFSMA_con_cape1000_192.txt.gz
Probability
81 71 84 84 74 74 77 74 71 68 61 52 48 39 52 45 39 45 45 74 74 77 71 65 71 71 65 58 65 58 52 42 39 35 35 29 23 26 16 13 23 23 19
84 77 81 77 77 77 71 77 77 71 71 71 65 61 68 48 52 55 42 61 81 87 74 71 74 77 71 71 65 61 55 42 45 42 42 39 29 32 26 13 23 19 19
87 81 81 77 81 71 74 77 77 77 71 68 68 65 55 68 61 61 58 48 58 81 87 84 81 87 81 74 68 61 65 55 55 55 45 42 39 32 32 23 26 23 26
94 84 84 77 84 77 81 87 81 81 77 74 77 74 61 68 61 61 61 55 55 35 58 84 84 84 81 74 71 68 65 65 58 55 48 48 45 42 39 29 26 26 26
94 90 84 87 87 84 84 68 74 81 77 68 68 74 68 71 68 58 58 58 65 68 58 58 87 87 77 77 81 81 74 68 65 55 55 52 48 45 39 35 32 26 16
87 94 87 90 87 87 87 84 81 81 84 77 52 42 71 71 71 68 61 61 71 71 61 61 58 61 81 87 81 77 74 74 68 61 58 52 48 45 42 35 29 26 19
90 87 84 87 87 90 87 81 81 77 71 74 71 58 65 71 61 77 74 71 71 71 71 65 65 65 52 68 77 81 81 81 81 74 68 65 58 55 45 35 26 16 19
87 74 81 84 90 90 90 87 87 87 77 65 68 65 55 55 65 42 68 77 68 65 65 61 68 71 74 52 35 65 81 77 74 74 77 77 71 71 52 35 26 23 13
81 81 84 77 87 90 90 87 84 71 68 71 65 55 48 45 55 65 68 61 68 68 71 61 65 68 71 65 61 35 65 71 77 74 71 77 68 52 35 29 32 19 16
84 84 87 81 84 84 84 81 81 74 74 68 71 74 65 65 45 58 58 55 68 61 58 45 52 58 68 68 68 55 35 39 45 61 61 65 61 48 42 32 29 29 32
87 87 90 90 84 81 77 81 81 77 74 71 77 71 61 68 48 45 42 45 58 68 61 68 65 61 61 55 55 42 39 26 26 35 45 48 48 45 42 39 42 35 35
87 87 84 84 77 84 81 84 81 71 74 74 71 74 77 65 58 55 39 45 52 55 55 65 61 61 68 52 35 35 26 19 19 19 26 32 35 35 35 35 32 32 32
87 87 81 87 84 84 84 84 84 77 74 74 71 74 81 77 68 61 48 42 48 48 61 58 58 48 45 39 35 19 19 13 3 0 0 0 10 16 19 19 26 29 26
81 84 87 84 81 74 74 81 84 81 77 77 65 68 68 68 61 58 58 52 42 35 52 55 52 45 45 45 29 3 16 6 0 0 0 0 0 0 0 3 6 6 6
87 87 87 87 84 77 77 84 81 81 81 77 74 74 68 61 65 61 61 61 48 29 26 48 42 45 29 29 16 13 23 19 0 0 0 0 0 0 0 0 0 0 0
87 87 87 87 84 84 81 77 74 71 77 81 81 68 68 61 55 58 61 58 55 39 35 42 35 26 29 16 10 16 19 10 6 0 0 0 0 0 0 0 0 0 0
87 87 87 87 84 87 84 81 77 68 65 71 74 68 65 65 58 52 52 48 52 39 29 39 32 35 32 29 16 16 19 13 13 3 0 0 0 0 0 0 0 0 0
87 84 84 84 87 84 81 77 77 71 71 71 74 58 58 45 45 48 52 45 42 42 29 32 32 26 35 26 23 19 16 10 13 0 0 0 0 0 0 0 0 0 0
84 84 87 84 84 81 81 74 77 71 68 65 55 55 48 48 52 48 45 42 35 26 32 35 29 29 32 19 16 19 13 13 10 0 0 0 0 0 0 0 0 0 0
90 84 84 81 81 77 77 68 68 68 58 61 58 52 48 45 35 39 35 39 35 32 29 35 32 26 19 19 23 16 16 16 13 0 0 0 0 0 0 0 0 0 0
90 90 81 77 74 68 61 61 61 61 58 61 55 48 39 29 26 19 16 19 26 26 26 26 23 19 16 16 16 13 3 3 3 6 3 0 3 3 0 0 0 0 0
90 90 81 71 68 58 39 39 48 58 52 55 48 42 29 26 16 10 6 6 10 16 19 23 19 16 16 13 13 13 6 3 3 10 6 3 3 0 0 3 0 0 0
77 74 74 71 65 39 26 26 32 48 52 55 42 42 29 13 10 13 6 0 0 0 0 10 13 16 19 19 16 13 13 10 10 10 6 0 3 0 0 0 0 0 0
77 77 74 71 55 32 16 13 10 42 45 42 35 32 26 19 16 16 13 10 10 10 10 0 3 6 10 6 6 10 10 10 10 6 6 0 3 3 0 3 0 0 0
71 71 68 68 48 32 13 6 3 32 35 29 26 26 26 16 10 3 10 13 13 10 0 0 0 0 0 0 0 0 0 3 0 3 3 3 0 0 0 3 0 0 0
68 65 61 55 48 39 16 10 0 23 35 29 23 19 16 10 10 0 3 13 16 16 6 3 0 0 0 0 0 0 0 0 0 3 3 3 0 0 0 0 0 0 0

GEFSMA_con_cape1000_198.txt.gz
Probability
10 10 6 6 6 10 10 3 3 6 3 3 3 6 3 6 0 3 3 58 77 84 81 77 77 71 74 68 65 68 55 45 35 35 32 23 26 26 23 19 26 19 23
16 23 23 10 10 10 3 3 3 3 3 3 10 10 10 3 3 3 0 23 74 81 84 84 81 77 71 65 65 65 61 52 52 42 35 35 32 32 32 26 26 23 26
19 19 13 10 6 13 6 0 3 6 6 10 10 10 10 6 3 6 6 0 16 68 84 84 84 84 77 71 71 65 71 65 58 48 39 35 35 29 32 35 29 23 26
19 16 16 13 13 13 6 3 3 6 6 6 10 10 10 10 10 10 10 3 3 13 58 90 84 90 84 81 81 68 68 68 65 55 45 42 35 32 32 32 26 23 23
26 23 23 23 16 10 3 6 10 6 6 10 10 10 6 6 3 3 13 10 10 10 3 23 81 84 81 81 77 81 77 68 65 58 52 45 39 35 29 29 26 26 23
29 26 23 23 13 10 3 10 13 3 3 3 6 10 6 3 3 3 3 6 6 10 10 10 16 52 77 87 84 81 84 77 68 61 58 55 48 45 39 32 26 16 13
45 23 39 32 26 10 10 10 6 10 6 10 10 3 0 0 3 3 3 3 6 6 10 6 0 0 13 77 84 87 84 87 87 81 74 68 65 52 45 35 26 13 10
45 35 26 29 23 10 10 10 10 13 13 10 6 3 0 0 0 0 3 3 6 6 3 6 6 3 3 10 13 61 81 81 81 87 87 77 74 71 58 39 26 23 19
39 35 35 39 39 32 23 16 16 19 16 10 10 6 3 0 0 0 0 3 6 3 3 0 3 10 10 10 10 10 65 77 71 77 81 77 68 61 55 52 45 29 16
39 32 35 39 29 32 23 19 19 16 16 13 10 6 6 0 3 0 0 0 0 0 0 0 3 6 3 10 10 10 16 32 45 52 58 65 65 52 42 42 45 42 29
48 52 42 42 42 35 29 26 29 23 16 16 13 10 6 3 3 3 3 3 0 0 0 0 0 0 0 3 3 3 6 10 13 35 55 52 52 45 45 39 39 45 35
48 52 48 45 45 42 35 39 32 29 29 16 6 6 6 6 6 3 3 3 3 3 3 3 0 0 0 6 6 6 6 6 6 3 10 26 29 29 32 32 35 39 42
45 48 48 42 45 48 45 45 42 32 23 19 13 10 10 10 10 6 3 6 3 3 3 3 3 0 0 0 3 6 13 3 0 0 0 0 10 19 23 26 29 26 26
48 48 48 45 52 61 58 48 42 35 35 23 29 23 16 16 13 13 13 10 13 3 0 0 0 0 0 0 0 3 3 3 0 0 0 0 0 0 3 6 10 10 13
55 52 52 52 55 55 52 48 48 35 35 32 32 29 16 19 16 13 13 13 13 10 3 0 0 0 0 0 0 0 0 0 0 0 0 0 0 0 0 0 0 0 0
55 55 58 58 48 52 45 42 45 39 35 39 29 19 16 13 13 13 13 13 10 10 6 0 0 0 0 3 0 0 0 0 0 0 0 0 0 0 0 0 0 0 0
52 61 58 58 52 48 48 42 42 39 35 29 23 19 13 10 6 6 10 6 3 3 3 3 0 0 0 0 0 0 3 3 0 0 0 0 0 0 0 0 0 0 0
58 65 65 58 55 48 48 48 45 42 32 26 16 10 10 6 6 6 6 3 3 0 3 3 3 0 0 0 0 3 3 6 0 0 0 0 0 0 0 0 0 0 0
58 58 58 58 58 52 48 42 45 39 35 23 13 6 6 6 10 10 3 3 3 3 0 0 0 0 0 0 3 0 0 0 0 0 0 0 0 0 0 0 0 0 0
58 58 52 52 55 48 48 45 45 35 32 26 13 6 6 6 16 10 10 10 10 6 3 0 0 0 0 0 0 0 0 0 0 0 0 0 0 0 0 0 0 0 0
61 45 52 45 45 42 42 39 35 35 29 26 23 13 10 10 10 10 10 10 10 6 6 3 3 0 0 0 0 0 0 0 0 0 0 0 0 0 0 0 0 0 0
52 48 45 45 48 48 42 32 29 29 29 23 23 19 16 10 10 10 10 10 10 6 6 6 3 3 0 0 0 0 0 0 0 0 0 0 0 0 0 0 0 0 0
45 45 45 42 39 39 29 16 19 26 19 19 19 16 13 16 10 6 6 3 0 0 6 3 3 3 0 0 0 0 3 0 0 0 0 0 0 0 0 0 0 0 0
45 45 42 35 35 35 19 10 6 10 13 13 16 16 16 13 10 6 6 6 6 3 0 0 0 0 0 0 0 0 0 0 0 0 0 0 0 0 0 0 0 0 0
42 42 35 32 32 32 16 10 3 6 13 13 10 13 13 13 6 3 6 6 3 0 0 0 0 0 0 0 0 0 0 0 0 0 0 0 0 0 0 0 0 0 0
35 39 35 29 29 26 10 6 3 10 13 10 6 6 6 6 0 0 0 3 3 0 0 0 0 0 0 0 0 0 0 0 0 0 0 0 0 0 0 0 0 0 0

GEFSMA_con_cape1000_204.txt.gz
Probability
3 3 6 3 3 3 6 6 13 13 13 6 6 10 13 13 10 6 3 13 71 84 77 68 65 65 68 61 55 55 45 52 55 39 29 26 29 32 32 23 26 26 23
3 3 0 3 3 3 3 6 6 6 6 6 10 10 10 10 13 13 10 6 45 81 84 77 74 71 68 68 68 61 58 45 39 42 32 26 29 32 29 32 32 32 23
3 0 0 0 3 3 3 0 10 6 6 10 6 6 10 13 13 16 13 10 16 55 77 77 77 74 74 71 68 68 65 55 48 45 39 39 32 35 32 32 29 29 29
6 0 0 0 3 0 0 3 3 3 6 3 3 3 6 10 10 13 6 10 10 13 48 77 77 77 77 77 74 71 65 61 65 61 52 32 29 29 32 29 23 26 19
10 3 0 3 3 0 0 6 10 3 3 10 10 6 6 6 6 6 6 6 13 10 10 23 65 77 74 77 74 81 77 71 68 65 58 48 42 35 26 26 23 19 16
19 6 3 3 3 3 3 3 6 3 3 3 3 6 0 3 3 3 3 3 10 6 6 10 16 48 68 81 87 81 84 81 81 71 61 61 58 58 39 26 19 16 16
16 10 13 13 6 6 6 10 6 6 3 3 6 3 0 0 0 0 3 3 3 3 10 10 10 10 16 32 58 77 81 81 84 84 74 71 61 65 48 26 26 16 13
19 23 10 10 6 6 6 10 6 3 10 10 6 3 3 0 0 0 0 6 3 6 13 13 13 10 6 16 6 26 58 74 81 87 81 77 81 68 58 39 29 19 16
32 29 19 13 13 10 13 13 10 10 13 10 6 6 6 6 3 3 0 3 6 10 10 13 13 16 6 6 10 6 26 52 61 74 74 68 61 45 32 39 35 26 19
26 29 26 19 16 16 19 16 16 10 10 10 10 6 6 6 6 3 3 3 3 3 6 3 10 10 6 13 6 3 10 16 26 42 58 52 52 45 32 29 32 42 39
29 32 32 23 23 23 19 16 16 16 10 10 10 10 10 3 3 3 10 3 3 3 3 3 3 3 3 10 13 13 3 3 10 19 35 32 42 39 35 35 35 35 39
23 32 32 26 23 23 26 19 16 19 13 13 10 10 10 10 6 3 6 6 6 3 3 6 0 3 6 6 0 0 0 0 0 0 3 13 23 19 23 32 32 29 26
29 32 39 29 26 26 29 26 29 23 16 16 13 13 13 13 6 10 10 10 10 6 6 10 10 10 3 10 3 0 0 0 0 0 0 0 0 0 6 10 10 16 26
29 32 35 26 26 29 32 32 29 26 19 19 19 13 10 6 10 10 10 10 10 13 3 6 6 0 0 3 0 0 0 0 0 0 0 0 0 0 0 0 6 10 10
29 32 29 32 35 35 39 32 29 29 26 23 23 23 13 10 10 10 10 10 13 10 13 6 3 3 3 3 0 0 6 3 0 0 0 0 0 0 0 0 0 0 0
35 35 32 35 39 39 35 39 32 35 32 32 29 26 16 16 10 10 10 6 6 10 10 6 0 0 0 0 0 6 6 0 0 0 0 0 0 0 0 0 0 0 0
32 35 35 39 39 35 35 35 39 42 35 35 32 23 16 10 10 6 6 6 6 6 6 3 0 0 0 3 3 6 3 3 3 0 0 0 0 0 0 0 0 0 0
29 35 32 42 42 42 39 35 45 39 45 39 35 19 13 10 10 10 6 6 10 10 6 6 3 0 3 3 0 6 0 0 0 0 0 0 0 0 0 0 0 0 0
32 29 39 42 45 45 35 35 42 39 39 35 32 23 13 6 6 6 6 6 10 3 3 6 3 0 0 0 0 0 0 0 0 0 0 0 0 0 0 0 0 0 0
42 32 29 29 35 32 29 35 32 35 32 26 23 23 16 10 6 6 6 6 10 6 3 3 3 3 3 0 0 0 3 0 0 0 0 0 0 0 0 0 0 0 0
35 29 35 35 35 32 26 29 29 26 19 19 19 19 16 10 10 6 6 10 10 6 10 6 10 6 3 0 0 0 3 0 0 0 0 0 0 0 0 0 0 0 0
35 39 32 35 39 35 23 13 13 19 16 19 16 13 16 13 10 6 6 3 3 10 10 10 10 6 6 3 0 0 0 0 0 0 0 0 0 0 0 0 0 0 0
39 39 35 39 39 32 19 6 3 13 13 16 16 16 13 13 10 16 3 3 0 0 0 10 10 10 6 6 3 3 3 0 0 0 0 0 0 0 0 0 0 0 0
29 32 35 35 39 39 13 3 0 6 13 13 13 13 16 16 13 13 10 6 10 3 0 0 6 10 6 6 3 3 3 0 0 0 0 0 0 0 0 0 0 0 0
26 23 26 26 29 32 6 3 0 6 13 13 10 16 13 13 10 0 3 3 10 6 0 0 0 0 0 0 0 0 0 0 0 0 0 0 0 0 0 0 0 0 0
19 16 13 16 26 26 13 0 0 13 16 16 10 10 6 3 3 0 0 3 3 10 0 0 0 0 0 0 0 0 0 0 0 0 0 0 0 0 0 0 0 0 0

GEFSMA_con_cape1000_210.txt.gz
Probability
65 61 74 74 61 65 65 81 77 65 55 52 45 39 39 39 35 32 48 74 65 71 77 74 68 58 58 58 55 55 48 45 45 45 39 35 42 35 26 35 39 29 32
74 74 71 77 71 68 61 58 61 71 52 52 39 35 39 29 42 48 39 55 74 74 77 77 77 65 58 58 58 61 55 52 48 45 45 42 45 42 35 32 32 32 35
81 71 71 68 65 68 71 71 61 61 61 52 39 39 45 35 35 52 48 48 55 74 81 77 90 77 74 68 68 58 58 58 55 48 48 45 42 39 35 35 35 42 39
77 81 68 65 77 71 68 61 65 58 58 55 58 48 45 55 52 52 52 48 55 48 65 84 87 87 77 68 68 61 58 55 58 58 61 55 42 35 29 29 32 35 35
77 68 65 71 81 77 68 65 48 52 48 55 48 55 42 45 48 42 45 42 55 65 65 84 81 87 87 81 81 77 68 68 61 65 61 58 55 48 35 29 32 35 32
74 68 74 74 74 68 68 71 71 68 58 68 42 39 39 42 48 42 42 48 58 55 58 58 81 74 84 84 84 87 77 77 71 71 68 74 68 65 55 39 32 23 23
71 77 61 74 81 71 77 68 71 68 71 68 55 52 42 39 35 39 45 55 55 52 52 68 77 81 81 68 65 65 61 58 71 74 74 74 71 74 61 48 32 23 26
77 65 77 71 71 84 84 81 81 71 71 74 65 52 45 32 52 26 35 45 48 52 55 39 65 84 90 87 48 55 52 58 55 71 77 77 65 65 58 39 32 23 23
81 84 68 74 74 77 81 87 87 74 77 74 65 48 29 35 32 29 35 45 55 52 48 55 58 68 65 71 71 26 32 45 52 52 58 58 58 55 58 48 39 23 19
81 77 87 84 84 81 90 84 74 81 77 77 74 74 58 45 45 39 35 32 39 55 48 35 45 52 48 68 55 39 29 26 29 35 35 48 52 42 35 35 35 35 26
84 81 77 84 77 74 84 84 87 90 84 81 71 71 61 65 39 39 35 32 39 39 39 45 42 42 45 42 48 32 13 10 13 13 16 19 23 19 23 23 26 26 23
74 71 71 74 77 74 81 81 81 81 81 81 81 71 68 68 55 52 48 55 45 39 45 39 42 42 42 42 32 16 6 3 6 6 6 13 16 16 16 13 16 13 13
68 77 65 74 71 71 68 77 77 77 81 84 77 74 71 71 58 55 52 45 32 35 52 32 35 42 35 39 39 13 3 0 0 3 3 3 3 10 13 19 23 16 6
65 77 71 71 71 71 65 71 74 77 77 77 71 81 77 71 65 55 52 42 35 42 32 19 23 39 32 35 29 0 19 0 0 0 0 0 0 0 0 3 0 3 6
74 77 74 77 77 77 74 74 77 71 71 68 68 77 74 71 61 61 52 55 55 42 39 29 35 29 35 42 19 32 32 10 0 0 0 0 0 0 0 0 0 0 0
77 77 84 84 77 74 74 74 74 77 68 71 71 68 74 55 55 68 55 55 55 39 42 13 29 19 32 16 13 29 32 6 0 0 0 0 0 0 0 0 0 0 0
74 81 81 77 74 74 71 74 71 71 68 68 65 61 61 58 61 61 58 55 52 52 42 32 23 32 39 32 26 26 26 23 19 0 0 0 0 0 0 0 0 0 0
71 74 74 71 74 77 77 74 71 68 65 65 65 68 61 58 61 58 65 48 52 61 45 39 39 35 48 42 39 35 16 16 19 0 0 0 0 0 0 0 0 0 0
74 74 74 71 71 71 71 77 77 74 71 68 71 65 58 61 61 58 58 48 45 35 45 42 35 35 35 32 35 26 19 23 13 0 0 0 0 0 0 0 0 0 0
74 74 71 71 68 71 71 71 68 68 71 71 65 65 61 61 58 52 55 58 52 45 42 39 39 39 35 35 32 23 23 19 16 6 3 0 0 0 0 0 0 0 0
68 71 68 68 68 65 61 61 61 61 61 65 65 65 61 48 45 45 42 52 48 35 32 39 42 42 35 32 26 23 13 23 23 13 10 3 3 3 3 0 0 0 0
68 65 58 55 55 52 42 39 52 65 71 61 65 61 52 48 32 19 13 10 23 35 35 39 39 39 35 32 26 19 19 16 16 10 10 6 3 6 10 6 0 0 0
68 65 55 52 52 48 23 19 19 48 55 65 58 58 55 45 35 42 16 10 6 3 3 39 29 29 32 26 29 23 32 23 19 10 16 10 10 10 10 0 0 0 0
61 65 55 52 52 48 26 10 3 32 52 61 55 58 55 52 35 39 39 29 32 29 16 16 29 32 29 29 29 29 29 26 23 16 16 13 16 13 0 3 0 0 0
55 48 45 42 48 45 16 0 0 48 52 55 52 45 48 42 32 10 39 42 35 32 6 0 3 13 6 10 10 16 19 16 16 10 16 13 10 13 6 6 0 0 0
45 39 39 39 42 45 16 0 0 39 55 48 52 48 29 32 23 3 35 39 32 29 16 10 3 0 6 6 0 10 13 16 13 10 13 10 6 6 10 6 6 0 0

GEFSMA_con_cape1000_216.txt.gz
Probability
84 81 84 90 84 84 84 81 77 77 77 68 61 48 45 52 45 39 42 65 71 71 71 71 71 68 65 61 58 55 45 48 48 42 42 39 39 29 23 35 32 35 32
87 84 84 84 84 84 81 84 81 77 74 65 65 61 61 52 52 48 45 55 77 87 84 81 68 68 68 65 65 55 58 52 52 45 45 42 42 39 29 32 32 26 32
87 84 81 81 81 84 84 84 81 81 71 65 65 58 58 58 55 58 61 58 55 71 90 87 84 77 74 74 68 65 65 58 52 48 52 52 42 39 39 39 32 29 26
90 87 81 77 81 81 84 81 84 81 81 74 71 68 61 65 58 61 65 68 68 48 68 84 87 87 84 77 71 71 68 61 58 61 61 48 45 39 35 32 35 32 29
84 90 84 81 84 81 81 71 81 81 74 81 74 74 68 65 61 58 61 58 71 71 52 65 84 87 87 87 84 87 81 74 74 65 65 58 48 48 39 35 32 29 29
87 90 87 81 84 81 81 77 77 84 84 84 61 65 71 74 74 74 74 58 61 65 61 55 74 71 84 87 90 84 84 77 71 71 68 68 68 61 55 45 35 32 26
87 87 81 87 84 81 81 74 74 77 81 84 77 77 77 81 81 84 71 61 58 71 74 77 74 71 68 74 71 77 74 71 71 68 74 77 81 74 61 55 45 35 29
90 81 87 87 90 81 84 84 77 77 77 77 81 74 71 81 74 52 81 71 65 74 65 68 77 84 77 58 26 55 61 68 61 58 68 68 65 68 61 55 39 26 29
94 84 87 81 81 74 81 90 90 84 87 84 84 74 71 61 68 77 77 71 71 71 68 71 74 84 71 71 58 35 58 61 58 55 52 55 58 52 42 42 32 19 10
90 90 90 84 84 77 84 87 87 81 90 84 84 90 81 84 71 68 58 58 61 61 61 48 58 77 74 61 52 45 52 45 45 48 52 55 52 42 29 26 35 39 32
81 81 90 90 84 84 84 87 87 87 87 90 90 77 74 84 74 68 65 58 55 55 65 65 61 68 61 58 48 42 32 32 32 32 26 29 32 39 29 26 29 26 19
81 77 84 87 84 81 81 87 84 84 84 87 90 84 77 84 77 74 77 74 61 61 61 65 61 58 55 52 42 32 26 19 10 10 13 16 16 19 26 23 19 19 19
77 77 74 81 81 87 87 87 81 81 84 81 77 77 77 77 84 81 74 71 68 61 58 58 58 58 52 48 29 19 23 10 3 3 3 10 13 13 13 13 10 6 10
74 77 74 74 77 77 77 81 77 77 81 74 71 77 77 84 77 74 68 65 61 58 55 45 55 48 45 39 23 13 16 6 0 0 0 0 0 0 3 3 6 3 3
81 77 77 74 74 81 81 77 81 74 77 74 71 65 68 74 71 71 65 65 65 45 52 58 48 55 48 32 10 19 23 6 0 0 0 0 0 0 0 0 0 0 0
81 77 81 77 77 77 74 74 74 74 81 71 68 68 68 61 68 71 68 71 68 55 52 48 55 42 42 26 16 26 23 10 0 0 0 0 0 0 0 0 0 0 0
74 74 77 74 74 74 71 71 74 74 71 68 68 65 68 65 68 68 65 65 68 61 42 45 48 42 39 29 26 26 16 13 6 0 0 0 0 0 0 0 0 0 0
71 71 74 74 77 71 71 71 71 71 71 71 71 71 65 58 65 61 61 58 65 58 45 35 39 39 42 35 32 32 23 16 16 6 0 0 0 0 0 0 0 0 0
71 71 74 74 74 71 65 74 71 68 71 65 65 68 65 58 65 61 61 58 58 42 45 39 29 32 32 32 29 29 26 26 13 10 0 0 0 0 0 0 0 0 0
71 71 74 74 74 74 71 71 71 71 68 61 58 68 68 65 65 58 55 55 52 48 55 39 29 29 35 32 29 26 23 26 13 10 6 0 0 0 0 0 0 0 0
74 77 77 74 77 74 68 65 61 61 61 61 61 65 65 58 58 52 45 52 48 45 52 39 32 29 29 32 26 26 16 23 19 16 13 6 3 0 0 0 0 0 0
77 77 77 77 77 61 45 35 42 55 58 61 65 65 55 52 48 35 29 26 32 42 39 42 39 23 23 32 29 19 19 16 16 19 13 10 3 6 6 6 0 0 0
71 74 74 71 71 65 42 23 23 42 55 61 58 52 48 39 35 42 26 13 10 13 16 42 35 32 29 29 29 26 19 19 16 19 13 10 6 6 6 6 3 0 0
65 68 68 68 68 61 35 10 13 32 55 55 58 58 52 48 39 42 35 29 29 26 13 10 26 35 29 29 23 16 16 16 23 16 16 13 10 10 3 6 3 0 0
65 65 61 61 61 58 32 6 3 35 45 55 65 61 58 48 39 23 26 29 35 26 10 3 3 10 3 10 13 16 10 10 10 10 16 13 10 6 6 6 3 0 0
52 55 55 52 52 58 29 13 0 32 45 48 58 55 32 32 26 13 29 32 32 39 32 19 3 0 3 3 3 6 13 13 10 10 10 10 6 6 6 6 3 3 0

GEFSMA_con_cape1000_222.txt.gz
Probability
6 6 6 6 10 6 10 13 16 13 10 10 10 6 10 6 6 10 3 45 68 81 74 74 71 68 61 55 55 55 58 55 42 45 45 42 45 48 39 39 48 29 29
3 6 3 3 10 10 13 13 13 13 13 13 6 6 6 3 6 13 3 29 74 81 81 81 68 65 55 55 58 58 58 48 45 48 45 39 45 48 39 32 39 39 39
6 6 10 10 3 10 10 10 13 6 10 16 13 10 6 0 6 16 13 6 26 65 77 77 74 77 61 58 61 61 58 58 52 52 48 45 39 42 45 39 32 32 32
23 23 16 13 13 16 16 13 6 13 13 10 10 10 13 13 16 13 16 13 13 16 58 81 84 74 74 74 71 71 65 65 65 58 55 48 48 48 35 35 39 35 32
29 26 26 23 16 16 19 26 10 13 13 10 13 16 16 13 13 13 23 13 10 6 13 42 74 81 74 74 81 77 74 74 71 65 58 52 48 45 42 39 39 26 23
32 23 23 19 16 16 19 13 16 10 10 13 23 16 13 10 6 10 10 6 6 10 10 13 29 55 84 84 87 87 81 77 71 65 71 65 61 55 55 48 45 39 32
32 29 29 26 19 23 16 16 10 10 13 10 13 13 10 6 10 13 6 6 10 10 13 16 13 13 26 71 77 77 77 71 74 71 71 68 65 61 58 55 45 39 35
23 35 19 26 26 19 19 19 16 19 16 13 10 13 6 10 6 6 6 6 3 10 13 19 19 10 10 6 16 52 65 65 68 65 71 68 58 58 58 48 45 35 35
26 26 23 23 23 23 19 19 19 16 13 16 13 13 3 3 3 3 0 0 0 3 3 3 10 10 13 6 6 16 55 58 68 68 65 61 58 52 48 48 39 32 23
29 23 19 19 23 23 23 16 16 16 16 13 13 10 6 3 6 3 3 0 0 0 3 6 3 0 0 0 0 10 19 42 55 65 61 58 52 45 42 39 39 35 26
32 35 35 26 23 26 32 19 19 13 16 16 16 13 10 10 3 3 3 3 6 3 3 3 0 0 3 0 10 10 13 16 29 42 45 48 48 45 42 35 29 26 19
39 35 45 39 29 35 32 35 23 29 26 23 19 13 13 10 13 6 10 6 6 6 3 3 0 0 0 3 16 23 26 10 6 10 23 29 29 29 26 29 26 26 26
35 35 45 48 45 35 29 29 35 39 29 26 23 23 19 10 6 10 10 6 6 3 3 3 3 0 0 3 3 19 16 13 6 3 3 6 13 16 16 16 16 19 16
35 32 39 52 48 42 45 35 45 45 42 39 45 29 29 16 10 6 6 10 10 6 6 6 6 0 0 0 3 3 10 13 6 0 0 0 6 6 6 6 6 6 0
45 45 42 48 52 48 48 35 39 42 42 35 35 35 32 23 19 13 10 10 13 10 3 6 3 3 3 0 3 3 0 10 3 0 0 0 0 0 0 0 0 0 0
45 45 42 48 55 48 45 39 39 42 45 39 39 39 32 29 26 26 13 13 13 13 13 3 0 0 3 3 0 0 0 0 3 0 0 0 0 0 0 0 0 0 0
55 45 45 48 48 42 45 42 42 39 42 39 32 32 26 29 26 26 23 16 13 10 13 6 3 6 6 6 3 0 0 0 0 0 0 0 0 0 0 0 0 0 0
52 55 48 48 45 42 39 35 39 39 39 32 29 32 32 32 29 26 19 19 13 10 13 13 6 3 6 6 6 3 3 3 3 6 0 0 0 0 0 0 0 0 0
48 58 52 48 45 39 42 35 35 35 35 32 29 35 32 32 29 19 19 16 16 16 13 13 10 3 6 6 3 3 3 3 3 10 3 0 0 0 0 0 0 0 0
48 48 52 52 45 42 39 35 35 32 32 29 29 29 23 23 26 29 19 19 19 13 13 10 10 3 3 3 3 0 0 0 0 6 3 3 0 0 0 0 0 0 0
45 45 48 48 52 42 45 39 35 32 29 26 23 23 26 19 23 19 29 16 13 16 13 10 6 3 3 3 3 3 3 0 0 0 0 3 0 0 0 0 0 0 0
45 45 45 45 42 45 45 32 42 45 39 29 29 26 29 29 29 19 13 13 13 10 6 3 3 3 3 3 3 3 3 0 0 0 0 0 0 0 0 0 0 0 0
42 48 42 42 35 35 26 26 23 39 35 32 32 23 26 32 23 19 10 10 6 6 3 6 0 0 0 3 3 3 3 3 0 0 0 0 0 0 0 0 0 0 0
29 26 29 35 35 26 16 10 6 16 19 19 19 19 23 23 19 13 10 6 6 6 3 0 3 0 0 0 3 3 3 3 0 0 0 0 0 0 0 0 0 0 0
19 23 19 19 16 16 10 6 3 13 19 19 19 23 23 13 13 3 6 10 10 6 3 0 3 0 0 0 0 0 0 3 0 0 0 0 0 0 0 0 0 0 0
19 19 23 16 13 10 6 0 3 13 16 10 13 13 16 13 6 0 6 6 10 6 3 6 0 0 0 0 0 0 0 0 0 0 0 0 0 0 0 0 0 0 0

GEFSMA_con_cape1000_228.txt.gz
Probability
3 0 0 0 3 3 3 3 10 10 13 10 16 16 16 6 13 13 13 26 61 71 74 68 68 58 55 55 52 55 58 52 52 42 52 42 39 35 32 35 39 39 35
3 3 3 3 3 3 3 3 6 16 6 6 13 16 13 10 10 16 19 16 65 74 74 84 65 61 55 58 55 48 48 45 52 45 45 42 45 42 35 39 35 39 35
3 3 3 6 6 10 6 6 10 10 6 3 6 16 13 13 16 19 16 19 32 68 77 84 84 71 58 61 55 55 55 55 52 52 52 42 45 42 42 35 35 39 35
6 3 3 3 6 3 3 6 10 10 6 3 6 6 6 10 19 23 23 19 23 26 48 74 77 84 74 68 68 65 58 58 65 61 61 48 42 39 42 42 39 39 39
13 3 3 3 3 0 0 3 10 3 3 3 3 6 13 13 13 13 19 16 19 16 32 32 65 84 71 71 74 65 71 65 58 58 52 45 45 45 45 45 39 39 35
13 10 6 0 0 0 6 0 10 3 3 3 10 13 13 16 13 13 13 19 16 19 23 16 35 52 61 71 68 68 68 71 71 65 58 42 48 52 52 39 45 42 39
16 16 13 3 3 13 13 10 6 6 6 10 13 6 13 10 6 6 3 6 6 13 13 16 16 23 35 35 55 61 71 71 68 68 68 61 52 45 48 39 39 35 35
19 19 10 10 10 10 10 6 0 10 10 10 6 10 10 3 10 6 3 10 3 6 13 10 16 16 13 23 19 39 55 61 68 61 65 61 52 48 52 52 35 32 32
19 19 16 13 10 10 10 6 3 6 6 10 10 10 10 10 6 3 3 3 10 6 3 10 16 10 6 6 10 16 35 42 48 58 58 58 55 45 39 45 42 32 23
19 19 19 16 13 10 6 3 3 6 3 3 6 6 10 10 10 16 3 3 0 3 6 3 10 6 6 10 10 3 13 26 35 42 52 58 55 48 42 39 32 32 26
13 19 23 23 23 16 10 6 6 3 3 3 6 6 3 0 0 6 10 3 0 3 3 3 10 6 3 6 3 3 0 3 19 26 32 39 42 45 45 35 32 32 26
23 23 26 23 23 19 19 19 13 6 6 3 10 10 6 10 3 3 3 3 3 6 3 6 0 0 0 0 0 0 0 0 0 3 16 26 26 32 32 29 23 23 23
23 23 29 26 23 19 13 13 13 16 13 10 16 16 16 13 6 3 6 10 10 10 10 6 3 3 3 6 6 3 6 0 0 0 0 6 16 16 19 19 26 23 23
23 26 26 26 26 26 16 13 16 23 19 23 26 23 19 19 13 6 6 10 10 10 10 10 3 3 3 3 0 0 3 3 0 0 0 0 0 0 3 6 10 16 16
23 26 29 29 29 32 26 23 26 26 29 39 32 29 23 23 19 19 10 10 23 19 16 13 6 6 3 3 3 3 3 0 0 0 0 0 0 0 0 0 0 6 10
23 29 29 29 29 32 26 32 32 29 29 32 29 23 26 23 19 23 19 10 10 16 19 13 13 6 10 6 6 3 3 0 0 0 0 0 0 0 0 0 0 0 0
29 32 29 19 19 19 26 29 32 29 26 32 23 29 32 29 26 26 23 16 13 10 16 16 10 10 10 10 6 6 3 3 6 0 0 0 0 0 0 0 0 0 0
26 29 26 26 26 26 23 26 29 32 32 32 32 26 26 19 26 23 23 19 16 16 16 16 13 10 13 6 6 10 3 3 13 3 0 0 0 0 0 0 0 0 0
29 26 26 29 29 32 32 26 23 32 32 26 29 29 26 19 19 19 16 16 19 16 16 16 16 13 10 6 6 6 6 13 6 3 0 0 0 0 0 0 0 0 0
32 29 29 32 32 32 29 35 29 26 32 32 32 29 26 23 23 23 16 16 13 13 13 13 13 6 10 10 3 10 13 6 6 6 3 0 0 0 0 0 0 0 0
26 29 26 26 29 29 29 32 32 29 26 26 26 26 23 19 16 16 16 16 10 10 6 6 10 6 6 0 3 6 6 3 3 3 0 0 0 3 3 0 0 0 0
29 26 26 29 26 29 19 13 16 19 19 19 23 26 19 16 16 6 3 0 0 3 3 6 6 10 6 3 3 0 3 3 3 0 0 0 0 0 0 0 0 0 0
26 32 29 29 16 16 10 6 6 13 16 16 13 19 16 16 10 16 3 0 0 0 0 3 3 3 3 6 3 0 0 3 3 3 0 0 0 0 0 0 0 0 0
23 23 32 29 29 16 10 0 0 3 6 10 3 3 13 10 6 10 13 6 3 0 0 0 3 3 0 0 3 0 0 0 3 3 0 3 0 0 0 0 0 0 0
26 19 26 23 23 16 6 0 0 6 10 6 3 6 6 6 3 3 6 10 6 10 0 0 0 0 0 0 0 0 0 0 0 0 0 0 0 0 0 0 0 0 0
19 19 19 23 23 19 3 0 0 6 10 10 6 0 0 0 3 3 3 13 13 13 6 0 0 0 0 0 0 0 0 0 0 0 0 0 3 3 3 3 0 0 0

GEFSMA_con_cape1000_234.txt.gz
Probability
58 45 55 65 58 58 65 68 58 48 52 45 39 39 39 42 35 35 35 55 58 58 61 71 65 61 55 48 55 58 48 48 45 52 52 42 29 29 32 32 29 26 35
61 58 68 81 61 65 52 55 52 65 55 52 42 42 48 42 42 39 39 45 61 65 71 71 74 71 61 52 52 52 58 45 58 55 42 45 39 26 29 29 29 26 26
74 74 68 65 65 61 68 71 48 48 52 45 32 39 45 45 45 55 52 55 52 61 71 87 77 74 71 61 55 58 61 55 65 65 55 48 35 32 32 26 26 29 32
71 81 61 55 61 61 61 61 48 32 42 39 48 42 39 52 48 55 55 55 58 55 71 81 81 87 77 68 65 58 55 58 65 61 61 55 42 35 32 35 26 26 26
61 68 65 65 68 55 61 48 35 42 35 45 42 55 42 48 55 48 52 52 58 58 61 81 84 87 77 74 68 61 65 68 65 55 58 58 55 39 39 32 35 26 29
58 58 58 68 61 55 58 52 65 65 58 55 23 32 32 39 48 45 45 42 58 52 45 55 68 61 65 68 74 61 55 58 58 58 55 58 52 58 52 45 32 32 32
55 71 58 71 68 61 61 55 58 52 52 61 39 35 42 39 39 42 39 39 39 45 52 52 55 61 71 55 45 55 61 55 58 58 61 58 55 55 58 48 39 35 32
68 58 71 58 65 71 77 65 65 48 45 45 45 39 29 26 48 32 42 39 42 42 39 35 58 74 74 74 52 39 42 58 58 58 52 55 61 52 48 45 35 32 35
74 71 68 68 68 61 68 74 68 68 52 52 52 52 35 29 29 39 42 39 48 48 42 39 39 55 68 71 68 32 42 52 52 55 48 52 55 52 48 45 42 39 29
74 71 74 71 74 65 71 61 61 68 74 55 45 61 55 61 48 42 42 39 32 39 42 35 39 55 58 65 65 45 39 32 35 48 45 45 48 52 39 39 45 35 29
77 77 77 77 77 71 68 71 74 77 74 61 52 39 45 61 48 52 42 42 35 32 29 42 45 45 52 52 65 48 32 16 19 23 32 35 35 35 35 29 39 29 32
77 77 77 74 77 74 77 77 77 74 74 74 71 58 48 48 48 48 35 35 42 29 32 39 35 35 39 45 45 26 19 13 3 3 16 19 29 35 32 29 23 26 26
74 81 77 81 81 81 81 81 77 77 77 77 74 65 55 52 52 48 39 29 29 35 48 32 32 35 29 45 52 13 10 3 0 0 0 6 13 23 23 23 23 23 23
68 74 81 81 81 81 68 74 65 71 77 74 68 68 61 61 58 52 45 42 35 39 45 42 32 32 29 42 29 6 32 6 0 0 0 0 0 3 6 10 16 19 16
68 71 74 71 71 68 74 74 71 68 74 68 61 65 61 61 58 58 58 52 45 32 42 42 32 29 42 52 23 42 52 16 3 0 0 0 0 0 0 0 0 3 3
77 74 71 71 65 65 68 74 74 71 71 68 71 68 65 55 52 58 61 65 58 52 39 32 39 32 42 23 13 45 48 16 6 0 0 0 0 0 0 0 0 0 0
74 74 71 71 65 65 68 68 68 71 65 68 65 58 61 58 55 55 52 58 61 52 48 39 32 39 39 48 42 45 42 39 23 3 0 0 0 0 0 0 0 0 0
71 65 68 71 68 65 65 68 68 61 61 61 61 58 58 58 61 58 65 55 58 68 58 48 42 32 55 45 45 45 26 16 23 6 3 0 0 0 0 0 0 0 0
68 65 58 61 61 65 65 65 65 58 58 55 61 61 58 61 65 61 68 58 52 42 58 52 42 48 39 39 35 29 19 32 6 6 3 3 0 0 0 0 0 0 0
58 61 58 58 58 61 61 61 61 61 61 58 65 61 55 55 65 65 58 61 55 48 52 48 39 39 39 32 32 16 13 19 23 6 6 3 3 0 0 0 0 0 0
52 52 55 48 52 52 52 55 52 55 55 55 58 65 61 45 45 48 48 48 52 45 42 42 39 35 29 39 29 23 16 19 26 16 13 13 13 16 6 0 0 0 0
48 48 45 42 42 39 29 26 35 48 48 52 52 58 48 42 35 6 6 6 23 48 45 45 42 42 52 35 39 32 23 23 19 19 19 13 10 10 16 16 3 0 0
45 42 42 39 39 32 26 13 16 39 42 48 52 42 32 32 32 52 13 3 3 6 6 48 32 32 35 42 39 32 42 39 35 16 23 19 16 19 19 3 0 0 0
45 45 45 39 39 32 10 3 6 26 35 32 32 35 35 35 32 45 35 29 32 32 13 23 35 35 39 39 32 35 45 45 45 39 26 19 26 23 10 13 0 0 0
45 45 42 39 39 29 10 0 3 26 26 23 23 26 29 35 13 6 16 23 26 26 3 3 6 6 10 3 13 19 26 29 23 23 23 19 16 23 23 10 0 0 0
42 42 39 39 39 35 10 0 0 16 23 23 23 16 16 16 13 0 19 19 16 29 26 13 3 0 0 0 0 10 29 26 26 23 26 23 19 19 16 13 13 6 0

GEFSMA_con_cape1000_240.txt.gz
Probability
74 77 74 77 71 84 84 87 84 77 71 68 55 42 48 48 48 45 42 65 68 68 68 71 65 65 61 65 68 65 61 58 58 48 48 35 29 23 26 23 32 35 35
87 81 74 77 77 81 87 81 84 84 87 77 58 55 52 48 61 61 52 68 74 77 71 68 74 77 65 65 65 65 61 58 65 55 58 55 45 35 26 23 26 29 32
87 90 84 81 74 74 74 77 81 77 77 71 71 58 55 55 55 55 52 61 61 74 74 77 81 81 77 77 68 61 61 68 68 65 58 52 48 42 42 39 23 23 19
87 87 87 81 77 74 74 81 71 71 65 71 65 55 55 68 55 55 55 61 65 58 71 84 81 84 77 74 68 65 65 68 65 61 58 55 48 42 42 35 26 26 26
81 81 90 90 84 74 74 58 68 65 61 52 61 68 58 65 68 55 55 65 61 65 52 61 71 81 77 71 68 61 68 71 71 65 58 55 52 42 42 26 26 23 23
74 74 81 77 77 84 84 77 77 71 68 61 39 42 52 58 61 65 58 55 68 65 61 55 65 58 74 81 84 77 71 71 71 74 61 52 55 58 45 39 19 23 13
74 74 71 74 74 74 77 71 84 61 65 68 58 61 58 55 55 55 68 58 61 68 71 74 71 65 65 65 74 71 68 65 61 68 61 61 55 58 58 48 42 29 23
71 65 74 74 74 74 74 77 74 65 71 71 71 65 65 55 61 42 74 71 61 55 58 58 68 71 65 52 32 55 65 65 65 68 61 58 58 58 48 48 39 35 26
74 68 71 77 77 74 71 77 77 71 68 71 68 61 61 58 68 68 74 77 61 68 65 58 68 61 61 58 55 35 58 58 58 61 61 61 61 48 39 35 39 42 35
84 81 81 81 84 77 74 71 71 77 74 74 71 71 74 71 61 58 65 55 52 61 61 42 42 55 58 61 55 48 55 52 55 55 58 52 55 52 45 39 39 42 32
84 81 81 81 84 81 81 71 77 77 74 71 71 71 71 71 68 55 45 55 58 52 52 45 58 55 61 55 55 52 45 45 45 48 48 52 48 42 39 42 39 42 39
84 81 81 81 84 81 81 77 77 81 77 74 74 74 77 71 68 65 42 58 52 45 52 61 61 55 48 52 39 32 35 16 13 16 23 29 35 39 42 35 39 42 32
84 81 77 81 81 81 77 81 74 81 81 77 77 74 74 65 65 68 58 52 58 55 55 61 58 52 39 45 39 32 29 10 3 6 6 10 16 26 29 35 35 32 29
77 74 77 77 77 81 74 81 81 74 77 77 71 77 77 71 71 61 61 55 45 48 55 58 52 52 42 42 42 23 35 10 0 0 0 3 3 6 10 16 19 13 13
74 74 71 71 68 77 77 77 81 74 81 74 77 77 81 65 68 65 65 55 52 45 39 48 58 55 48 42 23 35 45 16 3 3 0 0 0 0 3 3 3 6 6
81 77 74 71 71 71 74 74 74 77 81 81 84 77 77 71 71 71 68 65 61 55 48 55 58 52 45 32 19 39 32 19 3 3 0 0 0 0 0 0 0 0 0
81 77 71 74 71 68 71 71 74 74 71 71 74 68 71 71 68 68 74 65 61 68 61 55 58 52 52 52 35 48 39 32 19 3 0 0 0 0 0 0 0 0 0
74 77 77 71 71 68 68 68 68 68 68 68 65 65 68 58 71 74 74 71 71 68 65 55 55 55 52 55 42 45 39 32 23 6 0 0 0 0 0 0 0 0 0
77 74 74 71 68 68 68 68 68 61 61 61 61 61 61 65 61 68 65 61 65 65 71 52 45 55 55 55 45 42 32 39 13 3 0 0 0 0 0 0 0 0 0
74 68 71 71 68 61 58 58 58 58 61 61 61 61 55 55 58 61 58 58 58 61 55 58 45 39 42 45 35 42 29 26 16 3 0 0 0 0 0 0 0 0 0
55 68 68 61 58 58 55 52 52 55 61 58 55 52 52 45 35 35 39 42 48 45 48 42 42 35 42 39 35 32 19 23 26 23 6 6 0 0 0 0 0 0 0
61 68 65 65 61 42 35 32 39 42 48 55 48 52 52 35 29 19 19 16 16 35 45 42 32 26 35 35 35 23 16 13 16 19 19 10 16 10 3 0 0 0 0
61 61 61 65 58 52 35 19 19 42 42 42 45 45 42 39 29 29 26 6 3 3 6 23 29 26 35 35 32 29 26 16 16 16 10 6 6 13 19 6 0 0 0
58 55 61 55 55 45 23 10 10 19 42 42 39 39 42 32 26 26 26 29 32 32 13 6 13 19 23 32 26 26 23 26 29 29 19 10 13 6 13 6 3 0 0
55 55 55 52 48 39 23 10 3 26 39 32 32 23 23 29 16 13 13 16 29 26 3 0 6 3 3 3 10 10 16 16 13 19 19 16 13 10 13 10 6 0 0
52 55 48 45 42 42 23 3 3 26 29 26 29 23 16 16 16 10 13 16 16 23 23 13 3 0 0 0 0 3 10 13 10 13 19 13 10 6 3 10 6 6 0

GEFSMA_con_cape1000_246.txt.gz
Probability
13 3 10 10 6 6 6 10 3 6 10 10 16 16 13 10 6 3 6 65 71 68 71 68 65 71 71 74 68 65 58 52 65 58 61 58 52 42 39 35 29 26 26
6 3 3 3 3 10 10 6 3 3 3 10 10 10 19 6 3 6 0 39 77 81 81 65 71 74 74 71 74 71 68 65 68 61 58 61 55 48 39 35 32 32 32
6 6 6 6 6 6 10 10 10 10 6 3 6 6 10 10 6 6 6 6 35 74 77 81 77 77 84 77 74 65 68 65 61 65 58 52 52 42 35 32 29 32 29
10 10 13 10 13 10 6 6 10 3 6 3 3 3 6 6 10 10 13 16 16 16 61 84 84 81 74 81 74 71 68 71 71 71 65 65 52 42 39 32 32 29 23
10 10 13 13 16 16 13 6 16 10 10 6 10 13 10 3 0 6 10 16 13 13 16 32 84 81 77 74 77 77 74 74 74 68 68 65 58 45 45 42 32 26 26
19 16 10 10 10 13 13 13 6 10 10 10 19 13 0 3 6 6 3 3 10 13 16 19 26 48 74 77 81 81 68 68 68 65 55 48 48 48 32 39 32 29 29
13 16 13 10 10 13 13 13 16 16 10 13 6 0 0 0 6 3 3 3 13 13 10 13 10 16 35 61 71 77 71 65 65 65 65 65 55 45 35 39 29 23 26
13 23 10 10 6 10 10 16 13 13 10 10 6 0 0 0 0 0 0 3 10 6 10 10 6 10 13 10 19 55 65 68 65 65 65 68 58 48 48 42 32 29 29
26 26 16 19 13 10 19 16 19 13 13 6 6 6 6 0 0 0 0 3 3 6 6 13 10 10 10 6 10 19 42 52 61 65 65 58 58 52 42 42 42 32 35
45 35 32 26 23 16 16 13 19 16 16 16 16 6 6 3 3 0 0 0 3 6 6 10 6 6 10 10 6 10 26 35 48 52 55 48 48 52 39 32 35 35 32
35 42 32 29 26 32 26 26 23 13 16 19 16 10 3 3 3 3 3 0 3 3 0 3 3 0 6 10 13 13 16 26 32 39 42 48 48 45 42 39 39 35 35
42 45 45 39 32 32 35 29 26 23 26 16 16 13 10 3 3 3 3 6 3 6 6 6 6 0 0 3 10 16 16 16 16 19 26 42 48 45 42 39 39 39 39
45 42 42 39 35 39 39 35 29 23 23 26 19 10 13 13 6 6 6 6 6 6 6 6 6 6 10 10 10 13 16 16 10 3 3 13 19 26 35 35 35 35 32
42 42 45 42 42 42 48 39 32 32 29 26 29 19 13 13 13 13 10 10 10 6 6 6 6 3 10 6 13 10 16 16 13 3 0 0 3 6 10 16 16 19 26
42 42 42 42 48 42 42 39 42 42 39 39 23 16 16 23 16 19 16 10 10 6 6 10 3 3 6 3 10 6 6 13 6 3 0 0 0 0 3 6 6 6 10
42 42 45 39 42 42 39 42 42 42 42 39 39 39 29 29 23 16 19 13 10 10 10 6 3 6 6 10 10 6 10 6 3 3 0 0 0 0 0 0 0 0 0
45 48 45 42 42 42 42 45 42 42 42 42 42 42 39 32 26 19 19 16 6 10 6 6 6 6 10 6 3 6 6 3 3 3 0 0 0 0 0 0 0 0 0
39 45 48 48 45 45 48 48 45 45 42 42 45 39 32 32 26 23 16 13 10 10 10 10 10 10 10 3 3 3 6 6 3 0 0 0 0 0 0 0 0 0 0
45 39 45 45 52 52 48 45 45 42 42 42 39 35 32 32 23 23 19 16 13 13 10 10 6 6 3 3 3 3 6 3 0 0 0 0 0 0 0 0 0 0 0
48 45 45 48 48 45 45 35 39 42 39 35 32 29 26 29 29 26 26 23 13 10 10 6 3 3 3 3 3 3 3 0 0 0 0 0 0 0 0 0 0 0 0
45 42 45 48 48 45 42 42 39 39 35 26 19 23 26 26 29 26 29 16 16 10 6 10 10 3 3 3 3 3 3 0 0 0 0 0 0 0 0 0 0 0 0
42 42 42 42 45 42 35 32 39 35 32 29 26 29 23 23 26 19 19 16 16 16 13 13 13 10 3 3 3 0 0 0 0 0 0 0 0 0 0 0 0 0 0
39 39 35 35 42 39 32 23 26 29 29 26 29 19 29 26 13 13 10 6 6 10 10 13 13 13 3 3 3 0 0 0 0 0 0 0 0 0 0 0 0 0 0
32 32 29 29 32 32 26 16 16 16 26 26 23 19 16 10 10 10 10 10 6 3 3 3 6 3 3 3 0 0 0 0 0 0 0 0 0 0 0 0 0 0 0
29 26 29 26 29 29 16 10 10 16 16 19 19 13 13 10 6 10 10 10 10 3 0 3 3 3 3 0 0 0 0 0 0 0 0 0 0 0 0 0 0 0 0
29 23 29 23 23 23 16 10 10 19 16 10 6 10 13 13 6 6 6 6 6 3 3 3 0 0 0 0 0 0 0 0 0 0 0 0 0 0 0 0 0 0 0

GEFSMA_con_cape1000_252.txt.gz
Probability
6 3 6 3 6 6 6 6 6 10 10 10 19 16 19 16 19 19 13 52 74 87 81 77 74 71 71 61 65 61 58 58 65 61 58 55 58 52 45 32 32 35 32
6 3 3 3 3 6 6 10 6 10 13 10 13 13 16 13 10 10 10 23 68 81 77 81 81 71 68 61 65 58 58 58 58 65 65 58 55 48 48 35 29 32 35
0 6 3 3 3 3 3 6 13 13 10 6 6 10 13 16 13 10 10 13 16 42 68 77 77 74 77 71 65 55 58 61 55 55 58 55 45 42 42 35 35 29 29
0 3 3 6 3 3 3 6 6 6 6 6 6 10 13 16 16 13 13 10 16 19 39 61 77 81 81 77 68 71 65 58 58 58 52 48 45 35 32 32 32 32 26
6 3 6 6 6 10 10 10 6 6 10 13 13 10 10 13 13 19 23 23 19 23 23 29 61 81 65 68 74 71 71 61 65 55 48 45 52 42 39 35 35 26 19
6 3 3 6 10 13 6 6 10 6 13 13 13 3 3 3 10 13 10 6 19 13 23 19 39 45 58 68 71 68 74 74 71 58 55 48 52 45 42 39 42 35 29
6 3 6 10 10 10 10 10 16 16 13 6 3 3 0 0 0 3 6 3 3 6 10 16 29 23 32 39 58 68 68 71 71 61 61 58 48 45 39 39 42 35 32
6 6 6 6 3 6 6 10 6 10 6 3 6 3 0 0 0 0 0 0 3 10 10 10 16 19 29 32 23 42 55 61 55 61 65 61 58 52 39 42 32 26 23
16 16 16 10 10 6 10 13 10 10 10 10 3 6 3 3 0 0 0 0 0 13 16 16 13 13 19 26 23 23 35 39 39 48 52 55 52 52 42 39 39 29 16
29 19 16 13 10 10 13 16 13 13 13 19 10 3 6 3 3 3 3 3 6 6 10 13 13 16 19 16 16 10 23 23 35 39 42 42 42 39 42 42 42 42 29
29 35 39 19 13 16 13 13 13 10 6 19 23 13 6 3 3 3 6 6 6 6 6 10 6 6 10 10 16 13 10 16 16 29 32 32 39 42 42 48 45 45 35
26 39 39 32 26 23 23 16 13 13 13 16 16 10 13 6 6 3 3 3 6 6 10 6 13 10 13 16 13 6 6 3 3 3 10 26 29 35 39 39 42 42 32
26 26 35 35 35 32 26 23 16 10 10 19 16 19 16 10 6 6 6 6 6 10 10 13 10 6 10 16 10 6 10 3 6 6 3 3 6 16 23 29 35 35 35
32 32 32 39 32 32 26 23 19 26 26 23 19 19 13 10 10 13 10 6 6 6 10 13 10 10 10 10 10 0 3 0 3 3 3 0 0 0 0 3 10 13 13
29 35 35 35 35 29 29 23 26 29 32 32 32 23 13 13 10 10 13 13 16 16 13 10 10 10 13 13 3 10 13 3 0 3 0 0 0 0 0 0 0 3 0
32 32 32 35 29 35 35 29 29 29 32 35 32 29 26 26 19 19 10 10 10 10 16 13 6 6 16 3 3 6 13 0 0 0 0 0 0 0 0 0 0 0 0
29 29 26 26 23 29 35 35 35 35 35 32 32 32 32 35 29 19 16 13 10 6 19 19 10 10 16 10 6 3 6 6 6 0 0 0 0 0 0 0 0 0 0
23 23 23 19 26 26 32 35 39 39 35 35 35 35 35 29 23 23 23 26 19 16 23 23 16 16 6 6 6 6 3 3 6 0 0 0 0 0 0 0 0 0 0
26 26 23 26 29 35 32 35 32 32 35 35 35 35 35 32 23 19 23 19 13 13 16 19 13 10 6 3 6 3 3 6 0 0 0 0 0 0 0 0 0 0 0
29 32 29 32 32 32 32 32 32 35 32 29 32 29 26 19 19 23 23 19 16 16 16 10 13 6 3 3 3 6 3 3 0 0 0 0 0 0 0 0 0 0 0
26 29 23 26 26 32 39 35 32 29 35 29 29 26 26 19 16 16 16 23 16 13 13 13 10 10 6 6 6 6 3 0 0 0 0 0 0 0 0 0 0 0 0
23 23 23 26 26 26 23 19 19 32 29 29 29 26 23 19 13 10 10 6 6 10 13 10 6 10 13 10 6 3 3 0 3 0 0 0 0 0 0 0 0 0 0
29 23 23 23 23 19 13 10 13 16 26 26 26 19 23 19 10 16 6 0 0 0 0 10 10 10 10 10 10 6 3 6 3 0 0 0 0 0 0 0 0 0 0
29 26 26 23 23 19 10 6 6 13 19 23 23 19 16 23 10 6 6 6 6 3 3 0 6 10 10 10 6 6 6 0 0 0 0 3 0 0 0 3 0 0 0
23 23 26 23 23 19 10 6 3 10 10 19 19 16 19 19 6 3 6 10 10 10 3 0 0 3 0 0 0 3 0 0 0 0 0 3 0 3 3 3 0 0 0
26 19 23 23 23 23 13 3 3 10 13 16 16 13 6 10 3 3 3 6 10 6 6 0 0 0 0 0 0 0 0 0 0 0 0 3 0 0 3 0 0 3 0